Weather reports worldwide

Advertisment
Coleshill, United Kingdom (3535): temperature & dewpoint: 11.01.2021 21:00:00 - 17.01.2021 21:00:00 (GMT)Coleshill, United Kingdom (3535): temperature -20cm & temperature -100cm: 11.01.2021 21:00:00 - 17.01.2021 21:00:00 (GMT)Coleshill, United Kingdom (3535): wind speed & gusts: 11.01.2021 21:00:00 - 17.01.2021 21:00:00 (GMT)Coleshill, United Kingdom (3535): wind direction: 11.01.2021 21:00:00 - 17.01.2021 21:00:00 (GMT)Coleshill, United Kingdom (3535): reduced air pressure: 11.01.2021 21:00:00 - 17.01.2021 21:00:00 (GMT)Coleshill, United Kingdom (3535): visibility: 11.01.2021 21:00:00 - 17.01.2021 21:00:00 (GMT)Coleshill, United Kingdom (3535): precipitation: 11.01.2021 21:00:00 - 17.01.2021 21:00:00 (GMT)
Date & Time tt [°C] td [°C] tt -20cm [°C] tt -100cm [°C] ff [km/h] ff [kn] fx [km/h] fx [kn] dd ppp [hPa] vv [km] rr [mm]
17.01.2021 21:00:00 5,4 2,3 - - 13 7 - - WSW 1025,0 35 0,0
17.01.2021 20:00:00 5,6 2,3 - - 13 7 - - WSW 1025,5 35 0,0
17.01.2021 19:00:00 5,2 2,6 - - 5 3 - - SSW 1025,5 29 0,0
17.01.2021 18:00:00 5,4 2,3 - - 5 3 - - SW 1025,7 30 0,0
17.01.2021 17:00:00 5,8 2,0 - - 5 3 - - WSW 1025,6 35 0,0
17.01.2021 16:00:00 6,1 2,3 - - 13 7 - - W 1025,4 35 0,0
17.01.2021 15:00:00 6,3 2,3 - - 11 6 - - W 1025,0 40 0,0
17.01.2021 14:00:00 6,4 2,3 - - 11 6 - - WNW 1024,6 40 0,0
17.01.2021 13:00:00 6,5 2,4 - - 11 6 - - NW 1024,6 45 0,0
17.01.2021 12:00:00 6,7 2,1 - - 16 9 - - WNW 1024,6 45 0,0
17.01.2021 11:00:00 6,0 1,9 - - 16 9 - - WNW 1024,5 50 0,0
17.01.2021 10:00:00 5,2 2,2 - - 15 8 - - WNW 1023,8 50 0,0
17.01.2021 09:00:00 4,3 1,8 4,7 5,7 15 8 - - WNW 1023,0 50 0,0
17.01.2021 08:00:00 4,1 2,0 - - 11 6 - - WNW 1022,1 45 0,0
17.01.2021 07:00:00 4,3 2,0 - - 11 6 - - WNW 1021,2 55 0,0
17.01.2021 06:00:00 4,1 2,0 - - 15 8 - - W 1020,4 75 0,0
17.01.2021 05:00:00 3,9 2,0 - - 15 8 - - W 1020,0 75 0,0
17.01.2021 04:00:00 4,3 2,5 - - 18 10 48 26 WNW 1019,7 55 0,0
17.01.2021 03:00:00 4,9 2,4 - - 8 4 - - WSW 1018,9 28 0,0
17.01.2021 02:00:00 4,8 2,3 - - 5 3 - - WSW 1018,6 27 0,0
17.01.2021 01:00:00 4,8 1,6 - - 8 4 - - WSW 1018,4 28 0,0
17.01.2021 00:00:00 5,4 1,7 - - 11 6 - - WSW 1018,3 30 0,0
16.01.2021 23:00:00 5,4 2,2 - - 8 4 - - WSW 1018,1 27 0,0
16.01.2021 22:00:00 5,5 2,4 - - 11 6 - - W 1018,1 27 0,0
16.01.2021 21:00:00 6,2 2,7 - - 13 7 - - W 1018,0 30 0,0
16.01.2021 20:00:00 7,1 4,0 - - 11 6 - - W 1017,7 35 0,0
16.01.2021 19:00:00 7,2 4,2 - - 9 5 - - WNW 1017,2 40 0,0
16.01.2021 18:00:00 7,5 4,5 - - 11 6 - - W 1016,6 40 0,0
16.01.2021 17:00:00 7,8 4,7 - - 15 8 - - W 1015,7 45 0,0
16.01.2021 16:00:00 8,1 4,9 - - 15 8 - - W 1015,0 50 0,0
16.01.2021 15:00:00 8,2 4,8 - - 15 8 - - W 1014,8 30 0,0
16.01.2021 14:00:00 8,7 4,8 - - 15 8 - - W 1014,5 55 0,0
16.01.2021 13:00:00 9,0 5,3 - - 18 10 - - W 1014,6 60 0,0
16.01.2021 12:00:00 7,8 7,0 - - 9 5 - - WNW 1015,0 60 0,2
16.01.2021 11:00:00 5,8 5,8 - - 5 3 - - SSW 1015,2 5 0,0
16.01.2021 10:00:00 3,8 3,7 - - 13 7 - - S 1014,9 2,7 0,2
16.01.2021 09:00:00 3,1 2,9 4,2 5,7 15 8 - - S 1014,9 2,5 0,2
16.01.2021 08:00:00 2,5 2,2 - - 24 13 - - S 1015,1 7 0,0
16.01.2021 07:00:00 2,0 1,5 - - 28 15 50 27 S 1016,0 3,5 0,2
16.01.2021 06:00:00 1,9 1,3 - - 29 16 59 32 S 1017,1 17 0,4
16.01.2021 05:00:00 1,8 1,4 - - 26 14 - - S 1018,7 5 1,8
16.01.2021 04:00:00 2,5 1,8 - - 26 14 - - S 1020,4 1,7 1,8
16.01.2021 03:00:00 2,8 1,8 - - 22 12 - - S 1021,6 9 0,0
16.01.2021 02:00:00 2,1 1,2 - - 22 12 - - S 1023,1 10 0,0
16.01.2021 01:00:00 1,4 0,6 - - 16 9 - - S 1024,7 7 0,0
16.01.2021 00:00:00 0,9 0,2 - - 15 8 - - S 1025,9 7 0,0
15.01.2021 23:00:00 0,4 -0,2 - - 16 9 - - SSE 1027,0 6 0,0
15.01.2021 22:00:00 0,0 -0,3 - - 15 8 - - S 1027,8 6 0,0
15.01.2021 21:00:00 -0,6 -0,9 - - 11 6 - - SSE 1028,8 4,6 0,0
15.01.2021 20:00:00 -0,8 -1,2 - - 9 5 - - SSE 1029,3 4,7 0,0
15.01.2021 19:00:00 -0,5 -0,9 - - 9 5 - - S 1029,4 6 0,0
15.01.2021 18:00:00 -0,1 -0,8 - - 13 7 - - SSE 1030,0 7 0,0
15.01.2021 17:00:00 0,1 -0,5 - - 11 6 - - S 1030,1 7 0,0
15.01.2021 16:00:00 0,3 -0,4 - - 11 6 - - SSE 1030,3 7 0,0
15.01.2021 15:00:00 0,2 -0,3 - - 13 7 - - S 1030,9 5 0,0
15.01.2021 14:00:00 0,4 -0,2 - - 8 4 - - S 1031,2 5 0,0
15.01.2021 13:00:00 0,2 -0,3 - - 8 4 - - S 1031,4 4,3 0,0
15.01.2021 12:00:00 0,4 -0,1 - - 5 3 - - SSW 1031,9 3,6 0,0
15.01.2021 11:00:00 0,1 -0,5 - - 5 3 - - SSE 1032,0 8 0,0
15.01.2021 10:00:00 -0,1 -0,6 - - 4 2 - - NW 1031,9 7 0,0
15.01.2021 09:00:00 0,0 -0,5 4,7 5,7 2 1 - - S 1031,2 6 0,0
15.01.2021 08:00:00 -0,1 -0,7 - - 4 2 - - NE 1030,7 7 0,0
15.01.2021 07:00:00 0,1 -0,6 - - 8 4 - - NE 1030,0 9 0,0
15.01.2021 06:00:00 0,5 -0,1 - - 8 4 - - NNE 1029,7 13 0,0
15.01.2021 05:00:00 0,5 -0,1 - - 9 5 - - NNW 1029,4 12 0,0
15.01.2021 04:00:00 0,6 0,1 - - 8 4 - - N 1028,9 10 0,0
15.01.2021 03:00:00 0,8 0,1 - - 8 4 - - N 1028,4 18 0,0
15.01.2021 02:00:00 0,7 0,2 - - 11 6 - - NNE 1027,7 11 0,0
15.01.2021 01:00:00 0,9 0,5 - - 8 4 - - NNE 1027,4 9 0,0
15.01.2021 00:00:00 0,9 0,3 - - 8 4 - - NNE 1027,0 8 0,2
14.01.2021 23:00:00 1,4 1,0 - - 9 5 - - NNE 1026,2 10 0,0
14.01.2021 22:00:00 1,4 1,0 - - 11 6 - - N 1025,6 10 0,0
14.01.2021 21:00:00 1,6 1,1 - - 9 5 - - N 1024,7 13 0,0
14.01.2021 20:00:00 1,6 1,2 - - 9 5 - - NNE 1023,7 13 0,0
14.01.2021 19:00:00 1,6 1,3 - - 8 4 - - NE 1022,8 12 0,0
14.01.2021 18:00:00 1,6 1,3 - - 8 4 - - NNE 1021,8 5 0,0
14.01.2021 17:00:00 1,7 1,4 - - 8 4 - - N 1020,5 15 0,0
14.01.2021 16:00:00 1,9 1,6 - - 9 5 - - N 1019,6 13 0,2
14.01.2021 15:00:00 1,8 1,5 - - 11 6 - - N 1018,3 5 0,0
14.01.2021 14:00:00 2,1 1,9 - - 16 9 - - N 1017,1 17 0,0
14.01.2021 13:00:00 3,8 3,7 - - 21 11 - - N 1016,0 5 0,2
14.01.2021 12:00:00 4,1 4,0 - - 13 7 - - NNW 1015,2 3,0 0,0
14.01.2021 11:00:00 4,0 3,9 - - 4 2 - - NNW 1014,4 2,0 0,2
14.01.2021 10:00:00 3,8 3,8 - - 5 3 - - NNE 1013,7 14 0,4
14.01.2021 09:00:00 3,5 3,5 4,9 5,7 8 4 - - NNE 1013,1 3,4 0,8
14.01.2021 08:00:00 3,7 3,7 - - 5 3 - - NE 1012,5 1,8 0,4
14.01.2021 07:00:00 4,1 4,1 - - 5 3 - - E 1012,1 2,1 0,2
14.01.2021 06:00:00 4,5 4,5 - - 4 2 - - N 1012,5 0,4 0,2
14.01.2021 05:00:00 4,4 4,4 - - 4 2 - - NNW 1012,9 0,7 0,2
14.01.2021 04:00:00 4,4 4,4 - - 0 0 - - N 1013,5 1,4 0,2
14.01.2021 03:00:00 4,3 4,3 - - 4 2 - - NNW 1014,2 2,4 0,6
14.01.2021 02:00:00 4,2 4,2 - - 4 2 - - N 1014,7 1,6 1,0
14.01.2021 01:00:00 4,4 4,4 - - 4 2 - - NNW 1015,4 1,9 1,0
14.01.2021 00:00:00 4,6 4,6 - - 5 3 - - NNW 1015,9 1,8 1,2
13.01.2021 23:00:00 5,2 5,2 - - 4 2 - - N 1016,0 1,3 1,8
13.01.2021 22:00:00 5,3 5,3 - - 4 2 - - NNW 1016,2 1,0 0,0
13.01.2021 21:00:00 5,4 5,3 - - 4 2 - - N 1016,4 1,0 0,0
13.01.2021 20:00:00 5,3 5,3 - - 2 1 - - N 1016,6 0,6 0,2
13.01.2021 19:00:00 5,6 5,6 - - 5 3 - - N 1016,8 0,3 0,2
13.01.2021 18:00:00 5,9 5,8 - - 5 3 - - N 1016,4 0,7 0,0
13.01.2021 17:00:00 6,6 6,5 - - 2 1 - - SSW 1016,3 0,6 0,0
13.01.2021 16:00:00 6,7 6,7 - - 2 1 - - N 1016,3 0,9 0,2
13.01.2021 15:00:00 6,6 6,6 - - 4 2 - - NE 1016,2 2,1 0,0
13.01.2021 14:00:00 6,9 6,9 - - 0 0 - - N 1016,3 1,0 0,4
13.01.2021 13:00:00 6,0 6,0 - - 2 1 - - S 1016,7 1,4 0,2
13.01.2021 12:00:00 5,2 5,2 - - 4 2 - - S 1017,1 1,7 0,0
13.01.2021 11:00:00 4,6 4,6 - - 4 2 - - S 1017,6 1,0 0,4
13.01.2021 10:00:00 4,1 4,1 - - 4 2 - - S 1017,4 0,7 0,6
13.01.2021 09:00:00 3,6 3,5 4,2 5,7 4 2 - - S 1017,5 0,6 0,2
13.01.2021 08:00:00 3,3 3,2 - - 4 2 - - SE 1017,7 0,6 0,0
13.01.2021 07:00:00 3,4 3,2 - - 4 2 - - S 1017,8 1,9 0,2
13.01.2021 06:00:00 3,2 2,9 - - 4 2 - - SW 1018,0 1,8 0,0
13.01.2021 05:00:00 2,3 1,9 - - 4 2 - - SSW 1018,3 5 0,0
13.01.2021 04:00:00 1,2 0,5 - - 5 3 - - S 1018,9 11 0,0
13.01.2021 03:00:00 0,8 0,3 - - 5 3 - - S 1019,2 12 0,0
13.01.2021 02:00:00 0,3 -0,1 - - 4 2 - - SSE 1019,5 9 0,0
13.01.2021 01:00:00 0,0 -0,5 - - 4 2 - - SSW 1019,8 9 0,0
13.01.2021 00:00:00 0,0 -0,4 - - 5 3 - - SSW 1020,5 10 0,0
12.01.2021 23:00:00 0,6 0,1 - - 5 3 - - SSW 1020,5 16 0,0
12.01.2021 22:00:00 0,5 0,1 - - 5 3 - - S 1020,3 16 0,0
12.01.2021 21:00:00 0,4 -0,1 - - 4 2 - - SW 1020,0 17 0,0
12.01.2021 20:00:00 0,5 -0,6 - - 4 2 - - SSW 1019,5 17 0,0
12.01.2021 19:00:00 1,7 -0,1 - - 4 2 - - WNW 1019,3 35 0,0
12.01.2021 18:00:00 2,2 -0,4 - - 5 3 - - NW 1018,8 45 0,0
12.01.2021 17:00:00 2,6 0,1 - - 5 3 - - WNW 1018,2 30 0,0
12.01.2021 16:00:00 3,1 0,6 - - 8 4 - - NW 1017,4 50 0,0
12.01.2021 15:00:00 3,6 1,3 - - 8 4 - - NNW 1016,7 60 0,0
12.01.2021 14:00:00 3,6 1,8 - - 9 5 - - N 1016,2 45 0,0
12.01.2021 13:00:00 4,0 1,5 - - 4 2 - - N 1015,5 60 0,0
12.01.2021 12:00:00 4,4 2,6 - - 13 7 - - N 1015,2 55 0,0
12.01.2021 11:00:00 4,0 3,1 - - 13 7 - - NNE 1014,6 28 0,0
12.01.2021 10:00:00 4,4 4,1 - - 9 5 - - NNE 1013,3 12 0,0
12.01.2021 09:00:00 4,7 4,3 4,5 5,5 11 6 - - N 1012,1 12 0,2
12.01.2021 08:00:00 7,0 6,4 - - 13 7 - - NW 1010,5 30 0,0
12.01.2021 07:00:00 7,2 6,4 - - 13 7 - - NW 1009,7 30 0,2
12.01.2021 06:00:00 7,2 6,4 - - 11 6 - - NW 1008,9 40 0,0
12.01.2021 05:00:00 7,5 6,3 - - 13 7 - - WNW 1008,5 50 0,2
12.01.2021 04:00:00 7,6 7,0 - - 15 8 - - NW 1008,1 20 1,0
12.01.2021 03:00:00 8,7 7,9 - - 13 7 - - WSW 1007,4 22 0,8
12.01.2021 02:00:00 8,6 7,8 - - 13 7 - - WSW 1007,4 16 1,2
12.01.2021 01:00:00 8,7 7,7 - - 13 7 - - SW 1007,4 30 0,2
12.01.2021 00:00:00 8,5 7,9 - - 13 7 - - SW 1008,2 11 0,2
11.01.2021 23:00:00 8,3 7,8 - - 15 8 - - SW 1008,8 16 0,6
11.01.2021 22:00:00 8,0 7,4 - - 15 8 - - SW 1009,4 14 0,2
11.01.2021 21:00:00 7,8 7,1 - - 15 8 - - SW 1010,0 60 0,2

tt = temperature
td = dewpoint
tt -20cm = temperature -20cm
tt -100cm = temperature -100cm
ff = wind speed
fx = gusts
dd = wind direction
ppp = reduced air pressure
vv = visibility
rr = precipitation

Next stations